Flag for China Weather past 2 weeks in Lanzhou, Gansu, China

Now
48 °F

Clear.


Feels Like: 48 °F
Forecast: 37 / 74 °F
Wind: 1 mph from North

Location: Lanzhou / Zhongchuan

Current Time: Mar 30, 2015 at 4:01:19 AM

Latest Report: Mar 30, 2015 at 3:00 AM


Visibility: 10 mi

Pressure: 29.71 "Hg

Humidity: 43%

Dew point: 27 °F

Location of LanzhouLocation

Historic Weather in Lanzhou — Graph

°F

Lanzhou temperature yesterday

Maximum temperature yesterday: 75 °F (at 4:00 PM)
Minimum temperature yesterday: 28 °F (at 5:00 AM)
Average temperature yesterday: 50 °F

Past Weeks' High & Low Weather Summary

 TemperatureHumidityPressure
High75 °F (Mar 29, 4:00 PM)87% (Mar 24, 6:00 AM)30.42 "Hg (Mar 24, 6:00 AM)
Low25 °F (Mar 15, 8:00 AM)12% (Mar 15, 4:00 PM)29.68 "Hg (Mar 29, 5:00 PM)
Average43 °F38%30.12 "Hg
* Reported Mar 15 3:00 AM — Mar 30 3:00 AM, Lanzhou, Weather by CustomWeather, © 2015

Note: Actual official high and low records may vary slightly from our data, if they occured in-between our weather recording intervals... More about our weather records

Advertising

Lanzhou weather history for previous 24 hours

 ConditionsComfort  
Time TempWeatherWind HumidityBarometerVisibility
3:00 AM
Mon, Mar 30
48 °FClear.1 mph43%29.71 "Hg10 mi
2:00 AM52 °FClear.3 mph38%29.74 "Hg10 mi
1:00 AM52 °FClear.3 mph38%29.74 "Hg10 mi
12:00 AM57 °FClear.10 mph36%29.74 "Hg10 mi
11:00 PM
Sun, Mar 29
52 °FClear.6 mph38%29.71 "Hg10 mi
10:00 PM54 °FClear.8 mph38%29.71 "Hg10 mi
9:00 PM54 °FClear.6 mph35%29.71 "Hg10 mi
8:00 PM57 °FPassing clouds.6 mph29%29.68 "HgN/A
7:00 PM68 °FSunny.8 mph20%29.68 "Hg10 mi
6:00 PM73 °FPassing clouds.8 mph16%29.68 "HgN/A
5:00 PM73 °FPassing clouds.8 mph12%29.68 "HgN/A
4:00 PM75 °FPassing clouds.8 mph12%29.71 "HgN/A
3:00 PM73 °FSunny.10 mph12%29.71 "Hg10 mi
2:00 PM70 °FSunny.13 mph17%29.77 "Hg10 mi
1:00 PM66 °FPassing clouds.10 mph22%29.80 "HgN/A
12:00 PM61 °FPassing clouds.10 mph27%29.86 "HgN/A
11:00 AM55 °FPassing clouds.13 mph36%29.89 "HgN/A
10:00 AM50 °FPassing clouds.10 mph43%29.92 "HgN/A
9:00 AM43 °FClear.6 mph57%29.92 "Hg4 mi
8:00 AM32 °FClear.3 mph80%29.92 "Hg4 mi
7:00 AM28 °FClear.6 mph80%29.92 "Hg4 mi
6:00 AM28 °FClear.3 mph86%29.92 "Hg4 mi
5:00 AM28 °FClear.6 mph86%29.92 "Hg4 mi
4:00 AM30 °FClear.3 mph86%29.95 "Hg4 mi
Weather by CustomWeather, © 2015

See weather overviewHow to use our weather pages